F/V Cote D'ambre — FPEY — position and weather

sailwx.info

Track history (hours):
 
Tides and Currents Weather Stations Pressure Air Temp Water Temp Dewpoint Dewpoint Depression Visibility Wind Speed Wind Dir Waves Ship Positions

F/V Cote D'ambre

Last reported at 2014-Oct-31 10:33 UTC. Time now 2014-Oct-31 13:01 UTC.
Position N 47°06' W 003°39'.

Length 16 m; draft 4 m.

Type: Fishing. MMSI: 227128800.

Date/timePositionNaut miles runAvg speedWind from/ knotsBaromVisibWave heightAir tempDewpointWater temp
2014-Oct-31 10:33N 47°06' W 003°39'8 1.9
2014-Oct-31 06:33N 47°13' W 003°38'4 4.2
2014-Oct-31 05:33N 47°16' W 003°34'15 7.6
2014-Oct-31 03:31N 47°30' W 003°25'8 8.0
2014-Oct-31 02:33N 47°38' W 003°22'6 5.5
2014-Oct-31 01:31N 47°44' W 003°22'5 4.7
2014-Oct-31 00:34N 47°39' W 003°23'11 4.9
2014-Oct-30 22:17N 47°29' W 003°29'3 3.7
2014-Oct-30 21:33N 47°26' W 003°29'17 2.8
2014-Oct-30 15:33N 47°11' W 003°40'21 1.9
2014-Oct-30 04:33N 47°30' W 003°26'8 8.3
2014-Oct-30 03:33N 47°38' W 003°22'5 5.3
2014-Oct-30 02:33N 47°44' W 003°22'5 5.1
2014-Oct-30 01:33N 47°39' W 003°22'8 8.3
2014-Oct-30 00:33N 47°31' W 003°28'18 2.4
2014-Oct-29 17:09N 47°14' W 003°35'3 3.4
2014-Oct-29 16:19N 47°13' W 003°39'3 3.4
2014-Oct-29 15:33N 47°10' W 003°40'3 3.5
2014-Oct-29 14:33N 47°07' W 003°42'4 3.6
2014-Oct-29 13:33N 47°04' W 003°39'2 1.6
2014-Oct-29 12:27N 47°04' W 003°41'3 3.0
2014-Oct-29 11:33N 47°07' W 003°43'3 3.2
2014-Oct-29 10:33N 47°10' W 003°43'3 1.7
2014-Oct-29 08:33N 47°13' W 003°44'3 2.9
2014-Oct-29 07:33N 47°15' W 003°41'3 3.3
2014-Oct-29 06:32N 47°16' W 003°36'7 6.7
2014-Oct-29 05:31N 47°22' W 003°32'8 8.3
2014-Oct-29 04:33N 47°30' W 003°27'8 8.3
2014-Oct-29 03:33N 47°37' W 003°22'6 6.5
2014-Oct-29 02:33N 47°44' W 003°22'5 5.2
2014-Oct-29 01:33N 47°39' W 003°22'9 8.4
2014-Oct-29 00:30N 47°31' W 003°29'3 2.8
2014-Oct-28 23:33N 47°30' W 003°32'9 0.4
2014-Oct-28 03:25N 47°36' W 003°22'7 8.3
2014-Oct-28 02:34N 47°43' W 003°22'3 3.1
2014-Oct-28 01:33N 47°40' W 003°22'25 3.4
2014-Oct-27 18:13N 47°16' W 003°32'  
2014-Oct-25 02:29N 47°44' W 003°22'0 0.1
2014-Oct-25 01:33N 47°44' W 003°22'0 0.0
2014-Oct-25 00:33N 47°44' W 003°22'1 1.0
2014-Oct-24 23:33N 47°43' W 003°22'9 8.6
2014-Oct-24 22:33N 47°34' W 003°23'3 0.1
2014-Oct-24 01:33N 47°37' W 003°22'7 6.8
2014-Oct-24 00:31N 47°44' W 003°22'0 0.0
2014-Oct-23 23:31N 47°44' W 003°22'0 0.1
2014-Oct-23 22:33N 47°44' W 003°22'6 0.3
2014-Oct-23 03:33N 47°37' W 003°22'6 6.3
2014-Oct-23 02:32N 47°44' W 003°22'0 0.0
2014-Oct-23 01:32N 47°44' W 003°22'7 6.9
2014-Oct-23 00:33N 47°37' W 003°23'4 0.2
2014-Oct-22 04:08N 47°33' W 003°23'5 8.5
2014-Oct-22 03:33N 47°38' W 003°22'6 6.0
2014-Oct-22 02:33N 47°44' W 003°22'0 0.1
2014-Oct-22 01:33N 47°44' W 003°22'8 8.1
2014-Oct-22 00:33N 47°36' W 003°23'  
Track history (hours):
 
Tides and Currents Weather Stations Pressure Air Temp Water Temp Dewpoint Dewpoint Depression Visibility Wind Speed Wind Dir Waves Ship Positions

F/V Cote D'ambre

Last reported at 2014-Oct-31 10:33 UTC. Time now 2014-Oct-31 13:01 UTC.
Position N 47°06' W 003°39'.

Length 16 m; draft 4 m.

Type: Fishing. MMSI: 227128800.

Date/timePositionNaut miles runAvg speedWind from/ knotsBaromVisibWave heightAir tempDewpointWater temp
2014-Oct-31 10:33N 47°06' W 003°39'8 1.9
2014-Oct-31 06:33N 47°13' W 003°38'4 4.2
2014-Oct-31 05:33N 47°16' W 003°34'15 7.6
2014-Oct-31 03:31N 47°30' W 003°25'8 8.0
2014-Oct-31 02:33N 47°38' W 003°22'6 5.5
2014-Oct-31 01:31N 47°44' W 003°22'5 4.7
2014-Oct-31 00:34N 47°39' W 003°23'11 4.9
2014-Oct-30 22:17N 47°29' W 003°29'3 3.7
2014-Oct-30 21:33N 47°26' W 003°29'17 2.8
2014-Oct-30 15:33N 47°11' W 003°40'21 1.9
2014-Oct-30 04:33N 47°30' W 003°26'8 8.3
2014-Oct-30 03:33N 47°38' W 003°22'5 5.3
2014-Oct-30 02:33N 47°44' W 003°22'5 5.1
2014-Oct-30 01:33N 47°39' W 003°22'8 8.3
2014-Oct-30 00:33N 47°31' W 003°28'18 2.4
2014-Oct-29 17:09N 47°14' W 003°35'3 3.4
2014-Oct-29 16:19N 47°13' W 003°39'3 3.4
2014-Oct-29 15:33N 47°10' W 003°40'3 3.5
2014-Oct-29 14:33N 47°07' W 003°42'4 3.6
2014-Oct-29 13:33N 47°04' W 003°39'2 1.6
2014-Oct-29 12:27N 47°04' W 003°41'3 3.0
2014-Oct-29 11:33N 47°07' W 003°43'3 3.2
2014-Oct-29 10:33N 47°10' W 003°43'3 1.7
2014-Oct-29 08:33N 47°13' W 003°44'3 2.9
2014-Oct-29 07:33N 47°15' W 003°41'3 3.3
2014-Oct-29 06:32N 47°16' W 003°36'7 6.7
2014-Oct-29 05:31N 47°22' W 003°32'8 8.3
2014-Oct-29 04:33N 47°30' W 003°27'8 8.3
2014-Oct-29 03:33N 47°37' W 003°22'6 6.5
2014-Oct-29 02:33N 47°44' W 003°22'5 5.2
2014-Oct-29 01:33N 47°39' W 003°22'9 8.4
2014-Oct-29 00:30N 47°31' W 003°29'3 2.8
2014-Oct-28 23:33N 47°30' W 003°32'9 0.4
2014-Oct-28 03:25N 47°36' W 003°22'7 8.3
2014-Oct-28 02:34N 47°43' W 003°22'3 3.1
2014-Oct-28 01:33N 47°40' W 003°22'25 3.4
2014-Oct-27 18:13N 47°16' W 003°32'  
2014-Oct-25 02:29N 47°44' W 003°22'0 0.1
2014-Oct-25 01:33N 47°44' W 003°22'0 0.0
2014-Oct-25 00:33N 47°44' W 003°22'1 1.0
2014-Oct-24 23:33N 47°43' W 003°22'9 8.6
2014-Oct-24 22:33N 47°34' W 003°23'3 0.1
2014-Oct-24 01:33N 47°37' W 003°22'7 6.8
2014-Oct-24 00:31N 47°44' W 003°22'0 0.0
2014-Oct-23 23:31N 47°44' W 003°22'0 0.1
2014-Oct-23 22:33N 47°44' W 003°22'6 0.3
2014-Oct-23 03:33N 47°37' W 003°22'6 6.3
2014-Oct-23 02:32N 47°44' W 003°22'0 0.0
2014-Oct-23 01:32N 47°44' W 003°22'7 6.9
2014-Oct-23 00:33N 47°37' W 003°23'4 0.2
2014-Oct-22 04:08N 47°33' W 003°23'5 8.5
2014-Oct-22 03:33N 47°38' W 003°22'6 6.0
2014-Oct-22 02:33N 47°44' W 003°22'0 0.1
2014-Oct-22 01:33N 47°44' W 003°22'8 8.1
2014-Oct-22 00:33N 47°36' W 003°23'  

Dump ship's entire track history